This demonstration page uses our WeatherBlox Daily Observations layout. Learn more.

38.80484, -77.04692

Hourly Observations for September 22, 2016

Temp ( °F °C ) Dew Point ( °F °C ) Humidity (%) Winds ( mph kmh ) Pressure ( in mb ) Visibility ( mi km ) Precip ( " mm )
12:52 am 00:52 Mostly Clear 73 22.8 67 19.4 81 81 NNE 7 11 30.14 1021 10 16.0934 0 0
1:52 am 01:52 Mostly Cloudy 72 22.2 66 18.9 82 82 NNE 7 11 30.13 1020 10 16.0934 0 0
2:52 am 02:52 Mostly Cloudy 72 22.2 64 17.8 76 76 NNE 7 11 30.12 1020 10 16.0934 0 0
3:52 am 03:52 Mostly Cloudy 71 21.7 64 17.8 79 79 NNE 9 15 30.13 1020 10 16.0934 0 0
4:52 am 04:52 Mostly Cloudy 70 21.1 64 17.8 82 82 ENE 7 11 30.13 1020 10 16.0934 0 0
5:52 am 05:52 Partly Cloudy 70 21 63 17 78 78 NNE 8 13 30.15 1021 10 16.0934 0 0
6:52 am 06:52 Partly Cloudy 69 20.6 61 16.1 76 76 NNE 9 15 30.14 1021 10 16.0934 0 0
7:52 am 07:52 Partly Cloudy 70 21.1 59 15 68 68 NNE 9 15 30.15 1021 10 16.0934 0 0
8:52 am 08:52 Mostly Sunny 72 22.2 60 15.6 66 66 NE 8 13 30.15 1021 10 16.0934 0 0
9:52 am 09:52 Mostly Sunny 76 24.4 60 15.6 58 58 NNE 8 13 30.16 1021 10 16.0934 0 0
10:52 am 10:52 Mostly Sunny 79 26.1 61 16.1 54 54 NE 9 15 30.16 1021 10 16.0934 0 0
11:52 am 11:52 Mostly Sunny 82 27.8 62 16.7 51 51 NNE 8 13 30.14 1021 10 16.0934 0 0
12:52 pm 12:52 Mostly Sunny 84 28.9 60 15.6 44 44 ENE 8 13 30.13 1020 10 16.0934 0 0
1:52 pm 13:52 Mostly Sunny 86 30 59 15 40 40 NE 8 13 30.1 1019 10 16.0934 0 0
2:52 pm 14:52 Mostly Sunny 86 30 58 14.4 39 39 NE 9 15 30.08 1019 10 16.0934 0 0
3:52 pm 15:52 Partly Cloudy 86 30 59 15 40 40 ENE 10 17 30.07 1018 10 16.0934 0 0
4:52 pm 16:52 Mostly Sunny 85 29.4 62 16.7 46 46 ENE 8 13 30.07 1018 10 16.0934 0 0
5:52 pm 17:52 Mostly Sunny 83 28.3 63 17.2 51 51 E 7 11 30.06 1018 10 16.0934 0 0
6:52 pm 18:52 Partly Cloudy 81 27.2 63 17.2 54 54 E 7 11 30.07 1018 10 16.0934 0 0
7:52 pm 19:52 Partly Cloudy 78 25.6 64 17.8 62 62 E 7 11 30.07 1018 10 16.0934 0 0
8:52 pm 20:52 Mostly Clear 78 25.6 63 17.2 60 60 E 3 6 30.07 1018 10 16.0934 0 0
9:52 pm 21:52 Mostly Clear 75 23.9 63 17.2 66 66 Calm 30.08 1019 10 16.0934 0 0
10:52 pm 22:52 Mostly Clear 74 23.3 63 17.2 69 69 SSE 5 7 30.08 1019 10 16.0934 0 0
11:52 pm 23:52 Mostly Clear 73 22.8 63 17.2 71 71 S 3 6 30.08 1019 10 16.0934 0 0

Powered by AerisWeather